Sandberg, CA

9:08 PM PST on December 16, 2017 (GMT -0800)
Sandberg

Weather History for KSDB - March, 2013

Change the Weather History Date:

Sunday, March 10, 2013

  Actual Average Record
Temperature  
Mean Temperature 52 °F 46 °F  
Max Temperature 62 °F 53 °F 74 °F (2017)
Min Temperature 42 °F 39 °F 22 °F (1935)
Degree Days  
Heating Degree Days 13 19  
Month to date heating degree days 161 194  
Since 1 July heating degree days 2525 2953  
Cooling Degree Days 0 0  
Month to date cooling degree days 0 0  
Year to date cooling degree days 0 0  
Growing Degree Days 2 (Base 50)    
Moisture  
Dew Point 19 °F    
Average Humidity 37    
Maximum Humidity 57    
Minimum Humidity 16    
Precipitation  
Precipitation 0.00 in 0.06 in 1.58 in (1995)
Month to date precipitation 0.65 0.73  
Year to date precipitation 2.48 6.38  
Since 1 July precipitation 3.85  
Sea Level Pressure  
Sea Level Pressure 30.23 in    
Wind  
Wind Speed 12 mph (NNE)    
Max Wind Speed 23 mph    
Max Gust Speed 30 mph    
Visibility 10 miles    
Events      
T = Trace of Precipitation, MM = Missing Value Source: NWS Daily Summary

Daily Weather History Graph

Daily Weather History Graph

Search for Another Location

Airport or City:

Trip Planner

Search our weather history database for the weather conditions in past years. The results will help you decide how hot, cold, wet, or windy it might be!

Date:

Astronomy

Mar. 10, 2013 Rise Set
Actual Time 7:11 AM PDT 6:58 PM PDT
Civil Twilight 6:46 AM PDT 7:23 PM PDT
Nautical Twilight 6:17 AM PDT 7:53 PM PDT
Astronomical Twilight 5:48 AM PDT 8:22 PM PDT
Moon 6:13 AM PDT (3/10) 6:11 PM PDT (3/10)
Length of Visible Light 12h 37m
Length of Day
11h 46m
Waning Crescent, 1% of the Moon is Illuminated
Mar 10
Waning Crescent
Mar 11
New
Mar 19
First Quarter
Mar 27
Full
Apr 2
Last Quarter

Hourly Weather History & Observations

Time (PDT) Temp. Windchill Dew Point Humidity Pressure Visibility Wind Dir Wind Speed Gust Speed Precip Events Conditions
12:48 AM 43.0 °F 36.0 °F 27.0 °F 53% 30.24 in 10.0 mi NNW 13.8 mph - N/A   Clear
1:48 AM 43.0 °F 36.4 °F 27.0 °F 53% 30.25 in 10.0 mi NNW 12.7 mph - N/A   Clear
3:48 AM 42.1 °F 37.7 °F 28.0 °F 58% 30.23 in 10.0 mi North 6.9 mph - N/A   Clear
4:48 AM 44.1 °F 38.1 °F 21.9 °F 42% 30.22 in 10.0 mi NE 11.5 mph 21.9 mph N/A   Clear
5:48 AM 45.0 °F 37.6 °F 10.9 °F 25% 30.24 in 10.0 mi ENE 17.3 mph 26.5 mph N/A   Clear
6:48 AM 42.1 °F 36.1 °F 18.0 °F 38% 30.27 in 10.0 mi NE 10.4 mph - N/A   Clear
7:48 AM 45.0 °F 38.9 °F 12.9 °F 27% 30.28 in 10.0 mi ENE 12.7 mph - N/A   Clear
8:48 AM 46.9 °F - 12.0 °F 24% 30.27 in 10.0 mi ENE 16.1 mph 24.2 mph N/A   Clear
9:48 AM 50.0 °F - 12.9 °F 23% 30.28 in 10.0 mi ENE 13.8 mph 24.2 mph N/A   Clear
10:48 AM 52.0 °F - 12.0 °F 20% 30.28 in 10.0 mi ENE 16.1 mph 26.5 mph N/A   Clear
11:48 AM 55.9 °F - 12.0 °F 18% 30.28 in 10.0 mi East 15.0 mph 23.0 mph N/A   Clear
12:48 PM 55.9 °F - 12.0 °F 18% 30.26 in 10.0 mi East 12.7 mph 20.7 mph N/A   Clear
1:48 PM 59.0 °F - 14.0 °F 17% 30.24 in 10.0 mi East 11.5 mph - N/A   Clear
2:48 PM 60.1 °F - 16.0 °F 18% 30.21 in 10.0 mi NE 8.1 mph - N/A   Clear
3:48 PM 60.1 °F - 16.0 °F 18% 30.21 in 10.0 mi NNE 6.9 mph - N/A   Clear
4:48 PM 61.0 °F - 17.1 °F 18% 30.19 in 10.0 mi NE 4.6 mph - N/A   Clear
5:48 PM 59.0 °F - 19.9 °F 22% 30.18 in 10.0 mi NE 9.2 mph - N/A   Clear
6:48 PM 51.1 °F - 30.0 °F 44% 30.21 in 10.0 mi North 19.6 mph - N/A   Clear
7:48 PM 50.0 °F - 23.0 °F 35% 30.21 in 10.0 mi North 17.3 mph - N/A   Clear
8:48 PM 48.9 °F - 26.1 °F 41% 30.21 in 10.0 mi North 9.2 mph 16.1 mph N/A   Clear
9:48 PM 46.9 °F - 28.0 °F 48% 30.22 in 10.0 mi NNW 16.1 mph - N/A   Clear
10:48 PM 46.0 °F 40.2 °F 24.1 °F 42% 30.23 in 10.0 mi North 12.7 mph - N/A   Clear
11:48 PM 48.0 °F - 15.1 °F 27% 30.21 in 10.0 mi North 4.6 mph - N/A   Clear
12:48 AM 50.0 °F - 10.0 °F 20% 30.19 in 10.0 mi NNE 4.6 mph - N/A   Clear